Fort Hood, TX

11:07 PM CST on December 13, 2017 (GMT -0600)
Killeen-Fort Hood Regional

Weather History for KGRK - February, 2014

Change the Weather History Date:

Tuesday, February 11, 2014

  Actual Average Record
Temperature  
Mean Temperature 31 °F -  
Max Temperature 32 °F 60 °F 82 °F (2016)
Min Temperature 30 °F 40 °F 23 °F (2011)
Degree Days  
Heating Degree Days 34    
Moisture  
Dew Point 27 °F    
Average Humidity 86    
Maximum Humidity 93    
Minimum Humidity 75    
Precipitation  
Precipitation 0.02 in - - ()
Sea Level Pressure  
Sea Level Pressure 30.24 in    
Wind  
Wind Speed 14 mph (NNW)    
Max Wind Speed 20 mph    
Max Gust Speed 24 mph    
Visibility 6 miles    
Events Rain    
Averages and records for this station are not official NWS values.
T = Trace of Precipitation, MM = Missing Value Source: NWS Daily Summary

Daily Weather History Graph

Daily Weather History Graph

Search for Another Location

Airport or City:

Trip Planner

Search our weather history database for the weather conditions in past years. The results will help you decide how hot, cold, wet, or windy it might be!

Date:

Astronomy

Feb. 11, 2014 Rise Set
Actual Time 7:15 AM CST 6:15 PM CST
Civil Twilight 6:51 AM CST 6:40 PM CST
Nautical Twilight 6:22 AM CST 7:09 PM CST
Astronomical Twilight 5:54 AM CST 7:37 PM CST
Moon 3:42 PM CST (2/11) 4:48 AM CST (2/11)
Length of Visible Light 11h 49m
Length of Day
10h 59m
Waxing Gibbous, 91% of the Moon is Illuminated
Feb 11
Waxing Gibbous
Feb 14
Full
Feb 22
Last Quarter
Mar 1
New
Mar 8
First Quarter

Hourly Weather History & Observations

Time (CST) Temp. Windchill Dew Point Humidity Pressure Visibility Wind Dir Wind Speed Gust Speed Precip Events Conditions
12:55 AM 30.2 °F 20.8 °F 26.6 °F 86% 30.24 in 5.0 mi NNW 11.5 mph 20.7 mph N/A   Overcast
1:55 AM 30.2 °F 18.9 °F 26.6 °F 86% 30.25 in 5.0 mi NNW 16.1 mph - N/A   Overcast
2:55 AM 30.2 °F 19.8 °F 28.4 °F 93% 30.24 in 3.0 mi North 13.8 mph - N/A   Overcast
3:55 AM 30.2 °F 20.2 °F 26.6 °F 86% 30.23 in 5.0 mi North 12.7 mph 23.0 mph N/A   Overcast
4:30 AM 30.2 °F 19.3 °F 26.6 °F 86% 30.18 in 6.0 mi North 15.0 mph 21.9 mph N/A   Overcast
4:55 AM 30.2 °F 18.9 °F 26.6 °F 86% 30.23 in 6.0 mi North 16.1 mph 24.2 mph N/A   Overcast
5:42 AM 30.2 °F 21.3 °F 26.6 °F 86% 30.20 in 6.0 mi North 10.4 mph - N/A   Overcast
5:55 AM 30.2 °F 19.8 °F 26.6 °F 86% 30.24 in 6.0 mi North 13.8 mph - N/A   Overcast
6:55 AM 30.2 °F 19.8 °F 26.6 °F 86% 30.26 in 6.0 mi North 13.8 mph - N/A   Overcast
7:13 AM 30.2 °F 19.3 °F 26.6 °F 86% 30.22 in 6.0 mi North 15.0 mph 19.6 mph N/A   Overcast
7:55 AM 30.2 °F 20.2 °F 26.6 °F 86% 30.28 in 6.0 mi North 12.7 mph - N/A   Overcast
8:55 AM 30.2 °F 19.3 °F 26.6 °F 86% 30.30 in 5.0 mi North 15.0 mph - N/A   Overcast
9:55 AM 30.2 °F 18.9 °F 24.8 °F 80% 30.30 in 5.0 mi North 16.1 mph - N/A   Overcast
10:37 AM 32.0 °F 22.1 °F 24.8 °F 75% 30.25 in 6.0 mi North 13.8 mph - N/A   Overcast
10:55 AM 32.0 °F 20.5 °F 24.8 °F 75% 30.29 in 6.0 mi North 18.4 mph - N/A   Overcast
11:36 AM 30.2 °F 19.3 °F 24.8 °F 80% 30.26 in 5.0 mi North 15.0 mph - N/A Rain Light Freezing Rain
11:50 AM 30.2 °F 20.8 °F 26.6 °F 86% 30.25 in 5.0 mi North 11.5 mph - N/A   Overcast
11:55 AM 30.2 °F 20.2 °F 26.6 °F 86% 30.30 in 5.0 mi North 12.7 mph - N/A   Overcast
12:29 PM 30.2 °F 20.8 °F 26.6 °F 86% 30.24 in 5.0 mi NNW 11.5 mph - N/A   Light Freezing Drizzle
12:41 PM 30.2 °F 19.3 °F 26.6 °F 86% 30.24 in 3.0 mi NNW 15.0 mph - N/A Rain Light Freezing Rain
12:55 PM 30.2 °F 19.3 °F 26.6 °F 86% 30.28 in 2.0 mi NNW 15.0 mph - N/A Rain Light Freezing Rain
1:18 PM 30.2 °F 19.8 °F 28.4 °F 93% 30.21 in 3.0 mi NNW 13.8 mph - N/A   Light Freezing Drizzle
1:50 PM 30.2 °F 19.3 °F 28.4 °F 93% 30.20 in 4.0 mi NW 15.0 mph - N/A   Overcast
1:55 PM 30.2 °F 18.5 °F 28.4 °F 93% 30.25 in 4.0 mi NNW 17.3 mph - N/A   Overcast
2:55 PM 30.2 °F 17.8 °F 28.4 °F 93% 30.24 in 4.0 mi NNW 19.6 mph - N/A Rain Light Freezing Rain
3:29 PM 30.2 °F 18.5 °F 28.4 °F 93% 30.18 in 6.0 mi NNW 17.3 mph - N/A   Overcast
3:55 PM 30.2 °F 18.9 °F 28.4 °F 93% 30.23 in 6.0 mi North 16.1 mph - N/A   Overcast
4:55 PM 30.2 °F 20.2 °F 26.6 °F 86% 30.12 in 6.0 mi North 12.7 mph - N/A   Overcast
5:44 PM 30.2 °F 19.8 °F 26.6 °F 86% 30.19 in 6.0 mi NNW 13.8 mph - N/A   Overcast
5:55 PM 30.2 °F 19.8 °F 26.6 °F 86% 30.24 in 6.0 mi NNW 13.8 mph - N/A   Overcast
6:55 PM 30.2 °F 19.3 °F 26.6 °F 86% 30.27 in 7.0 mi North 15.0 mph - N/A   Overcast
7:08 PM 30.2 °F 20.2 °F 26.6 °F 86% 30.22 in 7.0 mi NNW 12.7 mph - N/A   Overcast
7:55 PM 30.2 °F 20.2 °F 26.6 °F 86% 30.27 in 7.0 mi NNW 12.7 mph - N/A   Overcast
8:16 PM 30.2 °F 20.2 °F 26.6 °F 86% 30.23 in 7.0 mi NNW 12.7 mph - N/A   Overcast
8:55 PM 30.2 °F 19.8 °F 24.8 °F 80% 30.27 in 7.0 mi North 13.8 mph - N/A   Overcast
9:55 PM 30.2 °F 20.8 °F 24.8 °F 80% 30.25 in 7.0 mi NW 11.5 mph - N/A   Overcast
10:55 PM 30.2 °F 20.2 °F 26.6 °F 86% 30.24 in 7.0 mi NNW 12.7 mph - N/A   Overcast
11:55 PM 30.2 °F 19.8 °F 26.6 °F 86% 30.27 in 7.0 mi NW 13.8 mph - N/A   Overcast